Content
SEND FEEDBACK

Daily
Averages
Monthly
Summary
United Kingdom

TYNEMOUTH, ENGLAND


Home > Europe > United Kingdom > England
Elevation: 108 feet     Latitude: 55 01N     Longitude: 001 25W

WEATHER
 
SELECT A DAY
Number of Records: 285,927;   Date Range: 7/1/96 - 8/18/14
 
SHARE

PRINT THIS DATA

[ ← Previous Day ]
WEATHER ALMANAC - OCTOBER 25, 2013
[ Next Day → ]
[ °C ]   °F
Weather ElementAverageHighLow
Temperature53.7 °F60.8 °F (2:50 pm)46.4 °F (12:50 am)
Dewpoint52.5 °F59 °F (1:50 pm)46.4 °F (12:50 am)
Humidity96.1 %100 % (12:50 am)77 % (3:20 pm)
Barometer29.53 in29.86 in (12:50 am)29.39 in (6:50 pm)
Wind Speed9.4 mph16.1 mph (8:50 am)
Wind Gust26.5 mph (10:50 am)
Weather ElementAverage
Visibility5.1 mi
Wind DirectionSSE (149.5 °)

Weather ElementTotal
Precipitation---
Heating Degree Days11.4 (Base 65)
Growing Degree Days3.6 (Base 50)
Averaged from 42 records on October 25, 2013
WEATHER CONDITIONS BREAKOUT
WIND DIRECTION BREAKOUT
WEATHER BY HOUR - OCTOBER 25, 2013
[ °C ]   °F
Local TimeTemperatureDewpointHumidityBarometerVisibilityWind DirectionWind SpeedGust SpeedPrecipitationEventsConditions
12:50 AM46.4 °F46.4 °F100 %29.86 in6.2 miVariable2.3 mphPartly Cloudy
1:20 AM48.2 °F48.2 °F100 %29.83 in6.2 miVariable3.5 mphPartly Cloudy
2:20 AM48.2 °F48.2 °F100 %29.80 in6.2 miESE (120°)5.8 mphPartly Cloudy
3:20 AM48.2 °F48.2 °F100 %29.77 in6.2 miVariable3.5 mphPartly Cloudy
3:50 AM50.0 °F50.0 °F100 %29.74 in6.2 miESE (110°)4.6 mphScattered Clouds
4:20 AM51.8 °F50.0 °F94 %29.74 in6.2 miESE (120°)5.8 mphScattered Clouds
4:50 AM51.8 °F51.8 °F100 %29.71 in6.2 miSE (130°)8.1 mphScattered Clouds
5:20 AM51.8 °F51.8 °F100 %29.68 in6.2 miESE (110°)10.4 mphScattered Clouds
5:50 AM51.8 °F51.8 °F100 %29.68 in6.2 miESE (120°)9.2 mphScattered Clouds
6:20 AM51.8 °F51.8 °F100 %29.68 in6.2 miSE (130°)9.2 mphScattered Clouds
6:50 AM51.8 °F51.8 °F100 %29.65 in5.6 miESE (120°)11.5 mph23.0 mphRainLight Rain
7:20 AM51.8 °F51.8 °F100 %29.62 in2.8 miESE (120°)11.5 mphRainLight Rain
7:50 AM53.6 °F53.6 °F100 %29.62 in3.7 miESE (120°)10.4 mphRainRain
8:20 AM53.6 °F53.6 °F100 %29.59 in3.7 miESE (120°)11.5 mphRainRain
8:50 AM53.6 °F53.6 °F100 %29.56 in2.8 miESE (110°)16.1 mphRainRain
9:20 AM53.6 °F53.6 °F100 %29.56 in2.8 miESE (120°)15.0 mphRainRain
9:50 AM53.6 °F53.6 °F100 %29.53 in2.2 miESE (120°)13.8 mphRainRain
10:20 AM53.6 °F53.6 °F100 %29.53 in2.2 miESE (120°)13.8 mphRainRain
10:50 AM53.6 °F53.6 °F100 %29.50 in1.9 miESE (120°)15.0 mph26.5 mphRainRain
11:20 AM53.6 °F53.6 °F100 %29.47 in1.9 miESE (120°)13.8 mph25.3 mphRainRain
11:50 AM53.6 °F53.6 °F100 %29.47 in1.2 miSE (130°)10.4 mphRainRain
12:20 PM53.6 °F53.6 °F100 %29.44 in2.5 miSE (140°)6.9 mphRainLight Rain
12:50 PM55.4 °F55.4 °F100 %29.44 in5.0 miSouth (170°)11.5 mphMostly Cloudy
1:20 PM57.2 °F57.2 °F100 %29.42 in6.2 miSouth (180°)13.8 mphScattered Clouds
1:50 PM59.0 °F59.0 °F100 %29.42 in6.2 miSSW (210°)12.7 mphScattered Clouds
2:50 PM60.8 °F55.4 °F82 %29.42 in6.2 miSSW (210°)16.1 mphPartly Cloudy
3:20 PM60.8 °F53.6 °F77 %29.42 in6.2 miSSW (200°)16.1 mphPartly Cloudy
3:50 PM60.8 °F53.6 °F77 %29.42 in6.2 miSSW (210°)12.7 mphPartly Cloudy
4:20 PM59.0 °F51.8 °F77 %29.42 in6.2 miSSW (210°)13.8 mphPartly Cloudy
4:50 PM59.0 °F53.6 °F82 %29.42 in6.2 miSSW (200°)6.9 mphPartly Cloudy
5:20 PM59.0 °F53.6 °F82 %29.42 in6.2 miSSW (200°)6.9 mphThunderstormPartly Cloudy
6:20 PM53.6 °F51.8 °F94 %29.42 in5.0 miSW (220°)6.9 mphRain-ThunderstormRain Showers
6:50 PM51.8 °F51.8 °F100 %29.39 in5.0 miSSW (200°)4.6 mphRainLight Rain Showers
7:20 PM53.6 °F51.8 °F94 %29.39 in6.2 miSSW (200°)3.5 mphRainLight Rain
7:50 PM53.6 °F51.8 °F94 %29.39 in6.2 miSouth (190°)4.6 mphPartly Cloudy
8:20 PM53.6 °F53.6 °F100 %29.39 in6.2 miSSW (200°)8.1 mphPartly Cloudy
8:50 PM53.6 °F53.6 °F100 %29.39 in6.2 miSouth (170°)9.2 mphPartly Cloudy
9:20 PM53.6 °F51.8 °F94 %29.39 in6.2 miSouth (190°)5.8 mphPartly Cloudy
10:20 PM51.8 °F50.0 °F94 %29.39 in6.2 miSouth (190°)3.5 mphPartly Cloudy
10:50 PM51.8 °F51.8 °F100 %29.39 in6.2 miSouth (190°)5.8 mphPartly Cloudy
11:20 PM53.6 °F53.6 °F100 %29.39 in6.2 miSW (220°)9.2 mphPartly Cloudy
11:50 PM53.6 °F51.8 °F94 %29.39 in6.2 miSW (220°)9.2 mphPartly Cloudy
Hourly data recorded from EGNT, located miles away from Tynemouth, England







STORIES FROM OUR PARTNERS